Glens Falls, NY

9:50 AM EDT on October 23, 2019 (GMT -0400)
Bennett Memorial

Weather History for KGFL - August, 2019

Change the Weather History Date:

Saturday, August 3, 2019

  Actual Average Record
Temperature  
Mean Temperature 70 °F 69 °F  
Max Temperature 84 °F 81 °F 94 °F (1975)
Min Temperature 56 °F 57 °F 44 °F (1953)
Degree Days  
Heating Degree Days 0 1  
Month to date heating degree days 0 3  
Since 1 June heating degree days 70 114  
Since 1 July heating degree days 0 24  
Cooling Degree Days 5 4  
Month to date cooling degree days 10 12  
Year to date cooling degree days 306 232  
Since 1 June cooling degree days 297 220  
Growing Degree Days 20 (Base 50)    
Moisture  
Dew Point 60 °F    
Average Humidity 76    
Maximum Humidity 100    
Minimum Humidity 51    
Precipitation  
Precipitation T in 0.14 in 3.10 in (1995)
Month to date precipitation T 0.41  
Year to date precipitation 25.94 22.54  
Sea Level Pressure  
Sea Level Pressure 29.99 in    
Wind  
Wind Speed 4 mph (South)    
Max Wind Speed 15 mph    
Max Gust Speed 20 mph    
Visibility 7 miles    
Events Rain    
T = Trace of Precipitation, MM = Missing Value Source: NWS Daily Summary

Daily Weather History Graph

Daily Weather History Graph

Search for Another Location

Airport or City:

Astronomy

Aug. 03, 2019 Rise Set
Actual Time 5:46 AM EDT 8:14 PM EDT
Civil Twilight 5:14 AM EDT 8:46 PM EDT
Nautical Twilight 4:33 AM EDT 9:26 PM EDT
Astronomical Twilight 3:48 AM EDT 10:11 PM EDT
Moon 8:39 AM EDT (8/3) 10:13 PM EDT (8/3)
Length of Visible Light 15h 32m
Length of Day
14h 28m
Waxing Crescent, 10% of the Moon is Illuminated
Aug 3
Waxing Crescent
Aug 7
First Quarter
Aug 15
Full
Aug 23
Last Quarter
Aug 30
New

Hourly Weather History & Observations

Time (EDT) Temp. Heat Index Dew Point Humidity Pressure Visibility Wind Dir Wind Speed Gust Speed Precip Events Conditions
12:25 AM 59.0 °F - 57.9 °F 96% 30.06 in 2.5 mi Calm Calm - N/A   Clear
12:33 AM 59.0 °F - 57.9 °F 96% 30.06 in 8.0 mi Calm Calm - N/A   Clear
12:53 AM 60.1 °F - 57.9 °F 93% 30.06 in 6.0 mi Calm Calm - N/A   Clear
1:53 AM 59.0 °F - 57.0 °F 93% 30.05 in 4.0 mi Calm Calm - N/A   Clear
2:08 AM 59.0 °F - 57.0 °F 93% 30.05 in 2.0 mi Calm Calm - N/A   Clear
2:17 AM 57.9 °F - 55.9 °F 93% 30.05 in 10.0 mi Calm Calm - N/A   Clear
2:31 AM 57.0 °F - 55.9 °F 96% 30.05 in 1.0 mi NW 3.5 mph - N/A   Partly Cloudy
2:37 AM 57.9 °F - 55.9 °F 93% 30.05 in 3.0 mi Calm Calm - N/A   Scattered Clouds
2:53 AM 57.9 °F - 57.0 °F 97% 30.04 in 4.0 mi Calm Calm - N/A   Partly Cloudy
3:10 AM 57.0 °F - 55.9 °F 96% 30.04 in 1.8 mi Calm Calm - N/A   Clear
3:53 AM 57.0 °F - 55.9 °F 96% 30.04 in 1.0 mi Calm Calm - N/A   Clear
4:06 AM 57.0 °F - 55.9 °F 96% 30.04 in 2.5 mi Calm Calm - N/A   Scattered Clouds
4:14 AM 57.9 °F - 57.0 °F 97% 30.04 in 10.0 mi Calm Calm - N/A   Scattered Clouds
4:53 AM 60.1 °F - 57.9 °F 93% 30.03 in 10.0 mi Calm Calm - N/A   Overcast
5:53 AM 60.1 °F - 57.9 °F 93% 30.04 in 6.0 mi Calm Calm - 0.00 in Rain Light Rain
6:53 AM 61.0 °F - 59.0 °F 93% 30.04 in 10.0 mi SSW 3.5 mph - 0.00 in   Mostly Cloudy
7:53 AM 64.0 °F - 61.0 °F 90% 30.03 in 10.0 mi Calm Calm - N/A   Partly Cloudy
8:53 AM 68.0 °F - 63.0 °F 84% 30.04 in 10.0 mi Calm Calm - N/A   Partly Cloudy
9:53 AM 73.9 °F - 63.0 °F 68% 30.03 in 10.0 mi WSW 3.5 mph - N/A   Mostly Cloudy
10:53 AM 75.9 °F - 62.1 °F 62% 30.01 in 10.0 mi South 5.8 mph - N/A   Scattered Clouds
11:53 AM 79.0 °F - 61.0 °F 54% 29.99 in 10.0 mi Variable 3.5 mph - N/A   Clear
12:53 PM 81.0 °F 81.7 °F 61.0 °F 50% 29.96 in 10.0 mi SSE 3.5 mph - N/A   Clear
1:53 PM 82.0 °F 83.0 °F 62.1 °F 51% 29.94 in 10.0 mi SSE 3.5 mph - N/A   Scattered Clouds
2:53 PM 82.9 °F 84.4 °F 64.0 °F 53% 29.92 in 10.0 mi SE 8.1 mph - N/A   Scattered Clouds
3:53 PM 81.0 °F 82.5 °F 64.0 °F 56% 29.88 in 10.0 mi SSE 11.5 mph - N/A   Partly Cloudy
4:53 PM 82.0 °F 84.5 °F 66.9 °F 60% 29.88 in 10.0 mi SSE 10.4 mph - N/A   Clear
5:53 PM 80.1 °F 82.1 °F 66.0 °F 62% 29.89 in 10.0 mi South 12.7 mph 19.6 mph N/A   Clear
6:53 PM 78.1 °F - 64.9 °F 64% 29.88 in 10.0 mi South 10.4 mph - N/A   Clear
7:53 PM 73.9 °F - 66.0 °F 76% 29.89 in 10.0 mi South 6.9 mph - N/A   Clear
8:53 PM 72.0 °F - 64.9 °F 78% 29.91 in 10.0 mi Calm Calm - N/A   Clear
9:53 PM 69.1 °F - 63.0 °F 81% 29.91 in 10.0 mi SSE 6.9 mph - N/A   Clear
10:53 PM 66.9 °F - 63.0 °F 87% 29.92 in 10.0 mi Calm Calm - N/A   Clear
11:25 PM 64.0 °F - 63.0 °F 96% 29.92 in 1.8 mi Calm Calm - N/A   Clear
11:53 PM 63.0 °F - 62.1 °F 97% 29.92 in 1.5 mi Calm Calm - N/A   Clear
11:55 PM 63.0 °F - 61.0 °F 93% 29.92 in 4.0 mi Calm Calm - N/A   Clear